Showing default

HEALTHSAT 1, 22827

Orbit data source: Space-Track

HEALTHSAT 1, 22827 is a payload satellite owned by AMSAT-I (US) in SSO that was launched on Sun, 26 Sep 1993 UTC via an ARIANE 40 launch vehicle from the French Guiana (FRGUI). Payload-class satellites include a variety of spacecraft equipped with specific instruments for various scientific and technological missions. These include communications satellites like Starlink; space stations such as the ISS; scientific satellites like the Hubble; Earth observation satellites from companies like Planet Labs, Umbra, and HawkEye 360; GPS; miniature CubeSats for education and research; and military/defense satellites.

Loading next visibility...
Identifier
22827, 1993-061E
Orbit
SSO
Country
Flag of USUS
Related business
Manufacturer
AMSAT-I
Mission
Non-operational Amateur Communications
Bus & Motor
MICROSAT, Unknown motor
Mass
12 kg wet, 12 kg dry
Launch date (UTC)
1993-09-26 (32 years ago)
Launch vehicle
ARIANE 40
Launch site
French Guiana (FRGUI)
Object type
Payload
Rocket body
Debris
Shape & HBR
Box, 0.1 m
Radar Cross Section
0.135 m², Medium (>0.1 m² and < 1m²)

Expand to show TLE details & history
Last TLE update: 6 hours ago

TLE from 6 hours ago
0 HEALTHSAT 1
1 22827U 93061E   25308.40912292  .00000239  00000-0  10479-3 0  9995
2 22827  98.6718  12.2292 0008261 336.0143  35.7746 14.32421526675917
Epoch: 2025-11-04T09:49Z
TLE epoch observation values (Epoch: 2025-11-04T09:49:08.220Z)
Latitude
11.66229°
Longitude
179.25401°
Altitude
781.021 km
Speed
7.467 km/s
True Right ascension
00h 41m 44s
True Declination
11° 35' 41"
Sunlit
Object was in full shadow at epoch
Visualization orbit readout
Latitude
Unknown
Longitude
Unknown
Altitude
Unknown
Speed
Unknown
Apparent Right ascension
Unknown
Apparent Declination
Unknown
Sunlit
N/A
Visualization observer readout
Local Sidereal Time
11:57:11
Azimuth
Unknown
Elevation
Unknown
Doppler factor
Unknown
Orbital elements
Apogee altitude
786.702 km
Perigee altitude
774.874 km
Semi-major axis
7,158.925 km
Eccentricity
0.00083
Inclination
98.6718°
RAAN
12.2292°
Arg. of periapsis
336.0143°
True anomaly
35.82999°
Mean anomaly
35.7746°
Eccentric anomaly
35.80229°
Mean motion
3.5832 °/min
Orbital period
100.47 mins
BSTAR
0.00010479
Loading maneuver chart data...
Computing Atmospheric mass density...
Loading historical data...
Loading historical data...
Loading historical data...
Loading historical data...
Loading historical data...
Loading historical data...
Loading historical data...

Documentation

Showing up to 5 results
|